QPF
0.00 0.00 0.00 0.00 0.00 0.00 0.00 0.00 0.00 0.00 0.00 0.01 0.01 0.02 0.03 0.03 0.03 0.02 0.02 0.02 0.02 0.02 0.02 0.03 0.03 0.05 0.06 0.09 0.10 0.10 0.09 0.10 0.09 0.07 0.05 0.05 0.04 0.04 0.03 0.03 0.03 0.02 0.01 0.01
0.00 0.00 0.00 0.00 0.00 0.00 0.00 0.00 0.00 0.01 0.01 0.01 0.02 0.03 0.03 0.04 0.04 0.03 0.04 0.03 0.03 0.03 0.03 0.03 0.03 0.04 0.07 0.10 0.12 0.11 0.09 0.07 0.07 0.07 0.08 0.08 0.07 0.06 0.04 0.03 0.02 0.01 0.01 0.02
0.00 0.00 0.00 0.00 0.00 0.00 0.00 0.00 0.00 0.00 0.01 0.02 0.03 0.03 0.03 0.03 0.04 0.04 0.04 0.04 0.03 0.03 0.02 0.02 0.02 0.03 0.06 0.06 0.07 0.08 0.07 0.06 0.06 0.07 0.06 0.05 0.05 0.05 0.03 0.02 0.02 0.01 0.01 0.02
0.00 0.00 0.00 0.00 0.00 0.00 0.00 0.00 0.00 0.00 0.01 0.03 0.03 0.04 0.02 0.02 0.02 0.03 0.03 0.03 0.03 0.03 0.03 0.03 0.03 0.03 0.04 0.05 0.04 0.06 0.06 0.07 0.07 0.07 0.07 0.07 0.05 0.04 0.03 0.03 0.02 0.02 0.01 0.02
0.00 0.00 0.00 0.00 0.00 0.00 0.00 0.00 0.00 0.00 0.00 0.01 0.02 0.02 0.01 0.01 0.01 0.01 0.01 0.02 0.04 0.04 0.05 0.06 0.05 0.03 0.03 0.03 0.04 0.04 0.05 0.06 0.05 0.06 0.06 0.05 0.04 0.03 0.02 0.02 0.02 0.02 0.03 0.04
0.00 0.00 0.00 0.00 0.00 0.00 0.00 0.00 0.00 0.01 0.01 0.01 0.01 0.01 0.01 0.00 0.01 0.01 0.01 0.01 0.02 0.02 0.03 0.04 0.04 0.03 0.03 0.03 0.03 0.03 0.03 0.03 0.04 0.04 0.04 0.04 0.03 0.02 0.02 0.01 0.01 0.01 0.02 0.04
0.00 0.00 0.00 0.00 0.00 0.00 0.00 0.00 0.00 0.01 0.01 0.01 0.00 0.00 0.00 0.00 0.00 0.00 0.00 0.01 0.01 0.01 0.02 0.03 0.04 0.03 0.03 0.03 0.04 0.04 0.03 0.03 0.03 0.03 0.05 0.05 0.03 0.02 0.02 0.02 0.01 0.01 0.01 0.02
0.00 0.00 0.00 0.00 0.00 0.00 0.00 0.00 0.00 0.00 0.00 0.00 0.00 0.00 0.00 0.00 0.00 0.00 0.00 0.00 0.01 0.01 0.02 0.03 0.04 0.03 0.03 0.04 0.03 0.03 0.03 0.02 0.02 0.02 0.02 0.02 0.02 0.02 0.02 0.02 0.02 0.02 0.01 0.01
0.00 0.00 0.00 0.00 0.00 0.00 0.00 0.00 0.00 0.00 0.00 0.00 0.00 0.00 0.00 0.00 0.00 0.00 0.00 0.00 0.00 0.01 0.02 0.04 0.05 0.04 0.04 0.03 0.03 0.02 0.02 0.02 0.01 0.02 0.02 0.02 0.02 0.02 0.02 0.02 0.02 0.02 0.01 0.01
0.00 0.00 0.00 0.00 0.00 0.00 0.00 0.00 0.00 0.00 0.00 0.01 0.00 0.00 0.00 0.00 0.00 0.00 0.00 0.00 0.01 0.01 0.01 0.02 0.04 0.05 0.05 0.04 0.03 0.02 0.01 0.01 0.02 0.01 0.01 0.02 0.02 0.01 0.01 0.01 0.01 0.02 0.01 0.01
0.00 0.00 0.00 0.00 0.00 0.00 0.00 0.00 0.00 0.00 0.00 0.00 0.00 0.01 0.00 0.00 0.00 0.00 0.00 0.00 0.00 0.01 0.01 0.02 0.04 0.05 0.06 0.05 0.03 0.02 0.01 0.01 0.02 0.02 0.02 0.02 0.01 0.01 0.01 0.01 0.01 0.01 0.01 0.01
0.00 0.00 0.00 0.00 0.00 0.00 0.00 0.00 0.00 0.00 0.01 0.01 0.01 0.01 0.00 0.00 0.00 0.00 0.00 0.00 0.01 0.01 0.02 0.03 0.05 0.05 0.06 0.05 0.03 0.02 0.02 0.02 0.01 0.02 0.02 0.02 0.01 0.01 0.01 0.01 0.01 0.01 0.02 0.02
0.00 0.00 0.00 0.00 0.00 0.00 0.00 0.00 0.00 0.00 0.01 0.01 0.01 0.01 0.00 0.00 0.00 0.00 0.00 0.01 0.01 0.02 0.02 0.04 0.04 0.05 0.04 0.04 0.03 0.02 0.03 0.02 0.01 0.02 0.02 0.02 0.02 0.02 0.02 0.01 0.01 0.01 0.01 0.01
0.00 0.00 0.00 0.00 0.00 0.00 0.00 0.00 0.00 0.00 0.01 0.01 0.01 0.01 0.01 0.01 0.00 0.01 0.01 0.01 0.01 0.01 0.02 0.02 0.02 0.02 0.02 0.02 0.02 0.02 0.02 0.02 0.01 0.01 0.01 0.02 0.03 0.03 0.02 0.02 0.02 0.02 0.02 0.02
0.00 0.00 0.00 0.00 0.00 0.00 0.00 0.00 0.00 0.00 0.01 0.01 0.01 0.01 0.01 0.02 0.01 0.00 0.01 0.01 0.01 0.01 0.02 0.02 0.02 0.02 0.02 0.02 0.02 0.02 0.02 0.02 0.02 0.02 0.02 0.02 0.02 0.03 0.02 0.02 0.02 0.01 0.01 0.02
0.00 0.00 0.00 0.01 0.00 0.00 0.00 0.00 0.01 0.01 0.01 0.02 0.01 0.02 0.01 0.02 0.01 0.01 0.01 0.01 0.01 0.01 0.02 0.03 0.03 0.02 0.02 0.02 0.02 0.02 0.02 0.02 0.02 0.03 0.02 0.02 0.02 0.03 0.03 0.03 0.02 0.01 0.01 0.01
0.00 0.00 0.01 0.01 0.00 0.00 0.01 0.01 0.01 0.01 0.01 0.01 0.02 0.02 0.01 0.01 0.01 0.01 0.02 0.03 0.04 0.04 0.05 0.05 0.03 0.03 0.04 0.03 0.04 0.04 0.04 0.04 0.03 0.04 0.03 0.03 0.03 0.03 0.03 0.02 0.01 0.01 0.02 0.02
0.00 0.01 0.01 0.01 0.01 0.01 0.01 0.00 0.01 0.01 0.01 0.01 0.01 0.01 0.00 0.01 0.01 0.01 0.01 0.02 0.06 0.06 0.06 0.05 0.04 0.04 0.05 0.06 0.07 0.06 0.04 0.03 0.03 0.03 0.03 0.04 0.03 0.03 0.03 0.02 0.01 0.01 0.01 0.01
0.01 0.01 0.01 0.02 0.02 0.02 0.00 0.00 0.00 0.01 0.02 0.01 0.01 0.01 0.01 0.01 0.02 0.03 0.03 0.03 0.04 0.05 0.05 0.06 0.04 0.03 0.05 0.07 0.05 0.03 0.03 0.03 0.03 0.02 0.03 0.04 0.02 0.02 0.02 0.01 0.01 0.01 0.01 0.01
0.01 0.01 0.02 0.02 0.03 0.02 0.01 0.00 0.00 0.01 0.02 0.00 0.01 0.01 0.01 0.02 0.02 0.04 0.04 0.03 0.03 0.02 0.02 0.04 0.04 0.03 0.03 0.03 0.04 0.05 0.05 0.05 0.05 0.03 0.03 0.03 0.02 0.03 0.02 0.01 0.01 0.01 0.01 0.01
0.01 0.02 0.02 0.01 0.01 0.01 0.00 0.00 0.01 0.02 0.01 0.00 0.01 0.01 0.01 0.01 0.01 0.01 0.01 0.01 0.01 0.01 0.01 0.02 0.03 0.03 0.02 0.02 0.03 0.03 0.03 0.04 0.04 0.04 0.03 0.03 0.02 0.03 0.02 0.01 0.01 0.01 0.01 0.01
0.01 0.01 0.01 0.01 0.01 0.01 0.00 0.00 0.01 0.01 0.00 0.00 0.00 0.01 0.01 0.01 0.01 0.01 0.01 0.01 0.00 0.00 0.01 0.01 0.02 0.02 0.02 0.03 0.03 0.03 0.03 0.03 0.04 0.05 0.04 0.04 0.03 0.02 0.01 0.01 0.01 0.01 0.01 0.01
0.01 0.01 0.01 0.01 0.01 0.00 0.00 0.01 0.00 0.00 0.00 0.00 0.01 0.01 0.01 0.01 0.01 0.01 0.00 0.00 0.00 0.00 0.00 0.01 0.02 0.02 0.01 0.02 0.03 0.03 0.03 0.03 0.03 0.05 0.05 0.04 0.04 0.04 0.03 0.02 0.01 0.01 0.01 0.01
0.01 0.00 0.01 0.01 0.01 0.00 0.01 0.01 0.01 0.01 0.00 0.00 0.01 0.01 0.01 0.01 0.01 0.00 0.00 0.01 0.01 0.01 0.01 0.01 0.02 0.01 0.01 0.01 0.02 0.03 0.04 0.05 0.05 0.04 0.04 0.03 0.03 0.03 0.03 0.02 0.01 0.01 0.01 0.01
0.01 0.01 0.01 0.01 0.01 0.01 0.01 0.01 0.01 0.00 0.00 0.01 0.01 0.01 0.01 0.01 0.00 0.00 0.00 0.00 0.01 0.01 0.01 0.01 0.01 0.01 0.01 0.01 0.02 0.02 0.03 0.04 0.05 0.05 0.05 0.05 0.04 0.03 0.03 0.02 0.01 0.00 0.00 0.00
0.01 0.01 0.02 0.02 0.01 0.01 0.01 0.01 0.00 0.00 0.01 0.01 0.01 0.01 0.00 0.01 0.00 0.00 0.01 0.01 0.01 0.01 0.01 0.00 0.01 0.01 0.01 0.01 0.01 0.01 0.02 0.03 0.03 0.02 0.03 0.04 0.04 0.04 0.04 0.02 0.01 0.00 0.00 0.00
MSLP
1012.39 1012.42 1012.31 1012.09 1011.82 1011.58 1011.41 1011.38 1011.49 1011.74 1012.10 1012.53 1012.98 1013.45 1013.89 1014.33 1014.77 1015.22 1015.70 1016.22 1016.77 1017.31 1017.84 1018.31 1018.70 1019.01 1019.22 1019.36 1019.44 1019.48 1019.50 1019.52 1019.54 1019.57 1019.60 1019.62 1019.62 1019.61 1019.58 1019.53 1019.45 1019.37 1019.29 1019.20
1012.50 1012.49 1012.35 1012.13 1011.87 1011.65 1011.52 1011.52 1011.65 1011.90 1012.24 1012.63 1013.03 1013.42 1013.79 1014.17 1014.56 1015.00 1015.49 1016.05 1016.65 1017.26 1017.85 1018.37 1018.80 1019.11 1019.32 1019.44 1019.49 1019.51 1019.52 1019.54 1019.58 1019.64 1019.71 1019.77 1019.81 1019.81 1019.77 1019.70 1019.60 1019.48 1019.36 1019.25
1012.51 1012.48 1012.34 1012.12 1011.90 1011.72 1011.64 1011.67 1011.81 1012.05 1012.33 1012.62 1012.91 1013.17 1013.43 1013.71 1014.04 1014.45 1014.97 1015.59 1016.28 1017.00 1017.69 1018.31 1018.81 1019.18 1019.41 1019.53 1019.57 1019.56 1019.55 1019.57 1019.62 1019.70 1019.80 1019.89 1019.95 1019.97 1019.93 1019.84 1019.71 1019.56 1019.41 1019.28
1012.46 1012.41 1012.28 1012.10 1011.93 1011.82 1011.80 1011.86 1012.01 1012.20 1012.40 1012.57 1012.70 1012.81 1012.91 1013.06 1013.31 1013.70 1014.24 1014.93 1015.73 1016.59 1017.43 1018.18 1018.80 1019.25 1019.53 1019.67 1019.71 1019.69 1019.66 1019.66 1019.71 1019.79 1019.90 1020.01 1020.09 1020.12 1020.08 1019.97 1019.83 1019.65 1019.48 1019.32
1012.37 1012.33 1012.22 1012.10 1012.01 1011.97 1012.01 1012.12 1012.27 1012.41 1012.51 1012.54 1012.51 1012.43 1012.37 1012.39 1012.55 1012.90 1013.47 1014.23 1015.16 1016.16 1017.16 1018.07 1018.82 1019.38 1019.73 1019.90 1019.95 1019.92 1019.87 1019.84 1019.87 1019.95 1020.06 1020.17 1020.26 1020.29 1020.25 1020.14 1019.98 1019.79 1019.59 1019.41
1012.29 1012.25 1012.18 1012.13 1012.12 1012.17 1012.29 1012.44 1012.59 1012.69 1012.69 1012.60 1012.41 1012.17 1011.96 1011.85 1011.93 1012.25 1012.83 1013.67 1014.70 1015.85 1017.00 1018.06 1018.94 1019.60 1020.03 1020.24 1020.29 1020.25 1020.18 1020.12 1020.12 1020.18 1020.27 1020.38 1020.47 1020.51 1020.47 1020.36 1020.19 1019.98 1019.77 1019.58
1012.24 1012.21 1012.18 1012.19 1012.27 1012.41 1012.59 1012.79 1012.95 1013.02 1012.96 1012.77 1012.47 1012.11 1011.78 1011.58 1011.59 1011.89 1012.49 1013.39 1014.51 1015.76 1017.04 1018.21 1019.20 1019.95 1020.43 1020.67 1020.73 1020.67 1020.56 1020.47 1020.43 1020.45 1020.53 1020.63 1020.72 1020.76 1020.73 1020.62 1020.45 1020.23 1020.00 1019.80
1012.23 1012.21 1012.22 1012.29 1012.43 1012.63 1012.88 1013.12 1013.30 1013.37 1013.28 1013.04 1012.68 1012.26 1011.87 1011.62 1011.61 1011.91 1012.53 1013.46 1014.64 1015.96 1017.30 1018.55 1019.60 1020.39 1020.90 1021.15 1021.20 1021.11 1020.96 1020.83 1020.75 1020.74 1020.79 1020.88 1020.96 1021.00 1020.98 1020.88 1020.71 1020.49 1020.26 1020.04
1012.26 1012.25 1012.28 1012.38 1012.56 1012.81 1013.10 1013.38 1013.58 1013.66 1013.59 1013.35 1013.00 1012.59 1012.21 1011.98 1011.99 1012.31 1012.95 1013.90 1015.09 1016.43 1017.78 1019.03 1020.08 1020.87 1021.37 1021.60 1021.62 1021.49 1021.31 1021.14 1021.02 1020.97 1021.00 1021.07 1021.15 1021.19 1021.18 1021.09 1020.93 1020.72 1020.48 1020.25
1012.31 1012.30 1012.33 1012.44 1012.63 1012.90 1013.20 1013.49 1013.72 1013.83 1013.80 1013.63 1013.35 1013.02 1012.72 1012.57 1012.64 1013.00 1013.67 1014.61 1015.79 1017.08 1018.38 1019.57 1020.57 1021.30 1021.74 1021.93 1021.91 1021.75 1021.53 1021.32 1021.17 1021.10 1021.11 1021.16 1021.24 1021.29 1021.28 1021.21 1021.06 1020.86 1020.62 1020.39
1012.35 1012.34 1012.36 1012.45 1012.63 1012.87 1013.15 1013.44 1013.68 1013.83 1013.87 1013.80 1013.63 1013.44 1013.28 1013.25 1013.42 1013.85 1014.53 1015.46 1016.57 1017.78 1018.97 1020.05 1020.94 1021.57 1021.94 1022.06 1021.99 1021.80 1021.56 1021.33 1021.16 1021.07 1021.07 1021.12 1021.20 1021.25 1021.26 1021.20 1021.07 1020.88 1020.65 1020.41
1012.36 1012.35 1012.36 1012.42 1012.54 1012.73 1012.97 1013.23 1013.46 1013.65 1013.76 1013.80 1013.78 1013.75 1013.76 1013.89 1014.18 1014.67 1015.37 1016.27 1017.29 1018.38 1019.43 1020.36 1021.11 1021.62 1021.89 1021.96 1021.85 1021.63 1021.38 1021.15 1020.99 1020.90 1020.90 1020.95 1021.03 1021.09 1021.11 1021.06 1020.94 1020.77 1020.55 1020.31
1012.34 1012.33 1012.33 1012.36 1012.42 1012.54 1012.71 1012.91 1013.13 1013.33 1013.50 1013.64 1013.77 1013.90 1014.09 1014.37 1014.78 1015.34 1016.06 1016.90 1017.83 1018.77 1019.66 1020.43 1021.02 1021.41 1021.60 1021.60 1021.47 1021.26 1021.03 1020.82 1020.68 1020.62 1020.63 1020.69 1020.77 1020.84 1020.86 1020.82 1020.72 1020.55 1020.35 1020.12
1012.29 1012.32 1012.31 1012.30 1012.31 1012.36 1012.44 1012.57 1012.74 1012.93 1013.14 1013.37 1013.61 1013.89 1014.23 1014.65 1015.17 1015.78 1016.50 1017.28 1018.10 1018.90 1019.63 1020.24 1020.69 1020.97 1021.09 1021.06 1020.93 1020.74 1020.55 1020.40 1020.30 1020.28 1020.31 1020.38 1020.47 1020.53 1020.56 1020.52 1020.42 1020.27 1020.07 1019.85
1012.25 1012.32 1012.33 1012.30 1012.26 1012.23 1012.24 1012.29 1012.39 1012.55 1012.77 1013.04 1013.37 1013.76 1014.22 1014.74 1015.33 1015.99 1016.69 1017.41 1018.13 1018.80 1019.38 1019.84 1020.17 1020.37 1020.44 1020.40 1020.30 1020.17 1020.04 1019.95 1019.92 1019.93 1020.00 1020.08 1020.17 1020.23 1020.25 1020.21 1020.11 1019.95 1019.76 1019.55
1012.23 1012.36 1012.40 1012.37 1012.29 1012.21 1012.14 1012.11 1012.14 1012.26 1012.46 1012.75 1013.12 1013.58 1014.11 1014.70 1015.35 1016.02 1016.70 1017.36 1017.98 1018.53 1018.99 1019.34 1019.58 1019.71 1019.76 1019.74 1019.68 1019.62 1019.57 1019.56 1019.58 1019.65 1019.73 1019.83 1019.91 1019.96 1019.96 1019.91 1019.79 1019.63 1019.44 1019.22
1012.25 1012.43 1012.51 1012.49 1012.40 1012.28 1012.15 1012.06 1012.03 1012.09 1012.26 1012.54 1012.93 1013.41 1013.98 1014.62 1015.28 1015.95 1016.61 1017.21 1017.75 1018.21 1018.57 1018.84 1019.02 1019.12 1019.16 1019.17 1019.17 1019.17 1019.20 1019.25 1019.33 1019.44 1019.54 1019.64 1019.71 1019.73 1019.71 1019.62 1019.49 1019.32 1019.11 1018.89
1012.28 1012.51 1012.62 1012.63 1012.54 1012.40 1012.24 1012.10 1012.02 1012.04 1012.18 1012.44 1012.82 1013.32 1013.91 1014.56 1015.23 1015.90 1016.53 1017.09 1017.57 1017.96 1018.26 1018.47 1018.60 1018.68 1018.73 1018.77 1018.81 1018.87 1018.96 1019.06 1019.19 1019.31 1019.42 1019.50 1019.55 1019.54 1019.47 1019.35 1019.19 1018.99 1018.78 1018.55
1012.28 1012.54 1012.68 1012.70 1012.63 1012.49 1012.31 1012.16 1012.06 1012.06 1012.18 1012.43 1012.82 1013.32 1013.92 1014.58 1015.26 1015.92 1016.53 1017.07 1017.51 1017.86 1018.11 1018.29 1018.39 1018.46 1018.51 1018.57 1018.64 1018.73 1018.85 1018.98 1019.12 1019.24 1019.34 1019.39 1019.39 1019.34 1019.23 1019.07 1018.87 1018.65 1018.42 1018.19
1012.22 1012.47 1012.61 1012.64 1012.58 1012.45 1012.30 1012.16 1012.08 1012.09 1012.21 1012.48 1012.87 1013.39 1014.00 1014.68 1015.37 1016.04 1016.65 1017.18 1017.61 1017.93 1018.16 1018.30 1018.39 1018.45 1018.49 1018.55 1018.63 1018.73 1018.85 1018.98 1019.10 1019.21 1019.27 1019.28 1019.23 1019.12 1018.96 1018.75 1018.52 1018.27 1018.03 1017.80
1012.02 1012.23 1012.35 1012.39 1012.34 1012.25 1012.13 1012.03 1011.99 1012.05 1012.21 1012.51 1012.94 1013.49 1014.13 1014.83 1015.54 1016.23 1016.85 1017.39 1017.82 1018.14 1018.36 1018.49 1018.57 1018.61 1018.64 1018.68 1018.73 1018.82 1018.92 1019.02 1019.11 1019.17 1019.18 1019.14 1019.03 1018.87 1018.65 1018.40 1018.13 1017.86 1017.60 1017.37
1011.68 1011.82 1011.91 1011.93 1011.90 1011.85 1011.79 1011.76 1011.79 1011.92 1012.15 1012.51 1012.99 1013.59 1014.27 1015.00 1015.74 1016.45 1017.10 1017.65 1018.10 1018.43 1018.65 1018.78 1018.84 1018.86 1018.87 1018.88 1018.91 1018.95 1019.01 1019.07 1019.12 1019.12 1019.08 1018.98 1018.82 1018.59 1018.32 1018.02 1017.72 1017.42 1017.16 1016.93
1011.17 1011.25 1011.29 1011.31 1011.31 1011.30 1011.32 1011.38 1011.50 1011.71 1012.03 1012.46 1013.01 1013.65 1014.37 1015.14 1015.91 1016.65 1017.33 1017.90 1018.37 1018.71 1018.94 1019.07 1019.13 1019.14 1019.12 1019.11 1019.10 1019.10 1019.12 1019.13 1019.12 1019.07 1018.97 1018.82 1018.60 1018.32 1018.00 1017.65 1017.31 1016.99 1016.71 1016.49
1010.54 1010.56 1010.58 1010.60 1010.63 1010.70 1010.80 1010.95 1011.18 1011.49 1011.89 1012.40 1013.00 1013.69 1014.45 1015.24 1016.03 1016.79 1017.48 1018.08 1018.56 1018.92 1019.17 1019.31 1019.37 1019.37 1019.34 1019.30 1019.26 1019.23 1019.20 1019.17 1019.11 1019.02 1018.87 1018.67 1018.40 1018.08 1017.71 1017.33 1016.94 1016.59 1016.29 1016.06
1009.85 1009.83 1009.84 1009.89 1009.98 1010.13 1010.33 1010.59 1010.92 1011.32 1011.81 1012.37 1013.02 1013.73 1014.50 1015.29 1016.09 1016.84 1017.54 1018.14 1018.64 1019.02 1019.28 1019.44 1019.51 1019.51 1019.48 1019.43 1019.37 1019.31 1019.25 1019.19 1019.10 1018.97 1018.80 1018.55 1018.25 1017.89 1017.48 1017.06 1016.64 1016.25 1015.92 1015.67
1009.14 1009.13 1009.17 1009.28 1009.46 1009.70 1010.00 1010.37 1010.79 1011.28 1011.82 1012.43 1013.09 1013.81 1014.56 1015.33 1016.09 1016.83 1017.50 1018.10 1018.60 1018.99 1019.27 1019.44 1019.53 1019.55 1019.53 1019.47 1019.41 1019.34 1019.27 1019.19 1019.08 1018.93 1018.73 1018.47 1018.14 1017.75 1017.31 1016.85 1016.40 1015.97 1015.60 1015.31
Thickness
5725 5726 5724 5730 5737 5742 5741 5740 5737 5742 5750 5748 5744 5741 5741 5741 5741 5739 5737 5735 5731 5728 5725 5721 5717 5714 5710 5706 5702 5698 5694 5691 5688 5685 5683 5679 5675 5672 5669 5666 5663 5662 5661 5660
5717 5719 5729 5733 5733 5734 5736 5735 5735 5737 5744 5744 5739 5737 5741 5739 5738 5738 5735 5731 5728 5723 5718 5714 5711 5708 5705 5701 5697 5692 5688 5685 5682 5679 5675 5671 5667 5665 5662 5658 5655 5653 5652 5651
5715 5724 5728 5725 5724 5724 5731 5735 5735 5732 5736 5740 5735 5728 5733 5736 5737 5736 5733 5731 5726 5721 5715 5710 5706 5703 5700 5696 5691 5687 5682 5679 5675 5672 5669 5665 5661 5658 5654 5651 5648 5645 5643 5642
5719 5726 5722 5721 5723 5727 5725 5739 5737 5733 5729 5728 5731 5719 5731 5735 5730 5730 5729 5727 5723 5719 5714 5708 5703 5699 5694 5690 5685 5680 5676 5672 5669 5665 5662 5658 5654 5650 5646 5643 5640 5637 5635 5634
5717 5722 5720 5719 5726 5729 5731 5739 5736 5733 5731 5727 5728 5721 5732 5735 5727 5729 5729 5726 5722 5717 5712 5706 5701 5695 5690 5685 5680 5675 5670 5665 5661 5657 5653 5650 5647 5643 5639 5635 5631 5629 5628 5625
5721 5728 5728 5728 5733 5733 5733 5731 5729 5730 5729 5712 5724 5719 5725 5733 5732 5732 5730 5726 5719 5713 5708 5702 5697 5691 5684 5679 5673 5668 5663 5658 5654 5650 5646 5642 5638 5634 5630 5627 5624 5623 5621 5618
5714 5721 5729 5731 5724 5725 5727 5719 5708 5706 5710 5715 5728 5720 5725 5735 5736 5733 5728 5724 5717 5710 5703 5696 5690 5684 5678 5672 5667 5662 5657 5652 5648 5643 5638 5634 5630 5627 5623 5620 5618 5616 5614 5611
5707 5709 5723 5728 5726 5722 5723 5723 5709 5700 5706 5719 5720 5718 5729 5733 5732 5729 5726 5721 5713 5706 5700 5693 5685 5679 5673 5666 5660 5655 5651 5646 5642 5637 5632 5627 5624 5622 5619 5614 5612 5609 5606 5604
5710 5710 5726 5729 5732 5729 5721 5723 5732 5719 5716 5711 5719 5722 5724 5725 5722 5720 5717 5712 5706 5701 5695 5687 5680 5674 5668 5661 5655 5650 5645 5640 5636 5631 5627 5622 5619 5615 5612 5608 5605 5602 5598 5597
5715 5705 5720 5726 5728 5726 5729 5726 5718 5713 5697 5697 5709 5714 5720 5716 5714 5712 5708 5705 5700 5695 5688 5681 5674 5668 5662 5655 5649 5644 5639 5635 5630 5626 5622 5618 5614 5610 5606 5603 5599 5595 5592 5589
5714 5704 5710 5716 5714 5716 5715 5714 5714 5716 5714 5700 5696 5709 5724 5718 5715 5709 5704 5700 5694 5688 5681 5674 5667 5662 5656 5649 5644 5638 5634 5629 5625 5622 5617 5612 5609 5604 5601 5597 5594 5590 5587 5585
5710 5707 5703 5711 5721 5724 5720 5718 5714 5701 5701 5705 5702 5704 5718 5716 5713 5707 5700 5693 5688 5682 5676 5669 5662 5655 5649 5643 5639 5634 5629 5625 5621 5617 5612 5607 5603 5599 5596 5592 5589 5585 5582 5580
5705 5697 5689 5696 5705 5713 5713 5716 5716 5713 5706 5700 5695 5701 5711 5709 5704 5700 5693 5687 5681 5675 5669 5663 5657 5650 5644 5640 5635 5630 5625 5621 5617 5612 5608 5603 5599 5595 5591 5587 5584 5581 5578 5576
5703 5696 5692 5688 5699 5709 5706 5709 5711 5706 5700 5698 5701 5704 5705 5702 5696 5691 5687 5681 5676 5669 5663 5658 5652 5646 5641 5636 5631 5626 5621 5617 5612 5608 5603 5598 5595 5591 5587 5584 5581 5577 5575 5573
5697 5692 5697 5701 5705 5706 5705 5705 5705 5702 5703 5698 5702 5704 5704 5701 5693 5687 5682 5676 5670 5663 5658 5653 5648 5643 5637 5632 5627 5622 5618 5613 5608 5604 5600 5596 5592 5588 5584 5581 5578 5574 5572 5570
5691 5687 5691 5691 5699 5700 5697 5701 5702 5701 5702 5701 5700 5697 5703 5698 5691 5682 5676 5671 5665 5660 5655 5650 5644 5639 5633 5628 5624 5619 5614 5609 5605 5601 5597 5593 5589 5585 5581 5578 5575 5572 5569 5567
5688 5682 5680 5682 5694 5691 5686 5698 5700 5699 5702 5699 5693 5695 5694 5687 5680 5675 5670 5667 5663 5657 5651 5646 5641 5636 5631 5626 5622 5616 5611 5607 5603 5598 5594 5590 5586 5583 5580 5577 5574 5571 5568 5565
5680 5678 5679 5680 5678 5667 5691 5704 5702 5696 5696 5697 5694 5691 5687 5681 5676 5671 5667 5663 5658 5653 5647 5642 5638 5633 5628 5624 5618 5614 5610 5605 5601 5596 5592 5589 5585 5582 5579 5576 5572 5569 5567 5564
5682 5677 5675 5675 5672 5677 5689 5696 5696 5690 5688 5694 5689 5684 5681 5676 5669 5663 5661 5658 5653 5648 5643 5638 5634 5630 5626 5621 5616 5611 5607 5603 5599 5595 5591 5588 5584 5581 5578 5575 5571 5569 5566 5564
5677 5677 5673 5671 5664 5664 5684 5696 5699 5690 5680 5690 5687 5680 5675 5670 5665 5662 5656 5652 5648 5643 5639 5634 5631 5627 5622 5617 5613 5608 5604 5601 5597 5594 5591 5587 5583 5580 5577 5573 5570 5568 5566 5564
5669 5669 5669 5669 5666 5677 5689 5692 5689 5673 5677 5685 5683 5678 5672 5667 5666 5660 5653 5648 5643 5638 5634 5631 5627 5623 5619 5615 5610 5606 5603 5600 5597 5594 5590 5586 5582 5579 5576 5573 5570 5567 5566 5565
5671 5671 5668 5669 5665 5669 5685 5686 5680 5679 5683 5682 5678 5673 5667 5663 5658 5653 5648 5642 5638 5634 5631 5627 5623 5619 5616 5612 5608 5605 5602 5599 5596 5592 5588 5584 5581 5579 5577 5572 5569 5567 5566 5565
5674 5675 5678 5673 5672 5677 5682 5682 5680 5681 5678 5676 5673 5669 5664 5657 5652 5648 5643 5639 5635 5631 5627 5624 5620 5616 5613 5610 5607 5603 5600 5597 5594 5590 5586 5583 5580 5578 5576 5573 5571 5569 5568 5568
5673 5673 5672 5670 5674 5676 5675 5675 5676 5676 5674 5673 5669 5665 5661 5655 5650 5645 5640 5635 5631 5627 5623 5620 5617 5614 5611 5608 5605 5603 5599 5596 5592 5588 5585 5582 5580 5578 5576 5574 5574 5572 5571 5570
5672 5668 5668 5666 5670 5670 5671 5671 5671 5670 5669 5667 5664 5662 5658 5653 5647 5642 5637 5632 5628 5625 5621 5618 5615 5613 5610 5607 5604 5601 5598 5594 5591 5588 5585 5583 5581 5580 5578 5577 5575 5574 5572 5570
5672 5669 5666 5668 5671 5670 5668 5669 5668 5665 5663 5662 5659 5656 5654 5650 5645 5640 5635 5630 5626 5623 5619 5616 5613 5611 5609 5606 5603 5600 5597 5594 5591 5588 5585 5585 5583 5582 5581 5580 5578 5574 5571 5568